Погода в Лозовом

Россия / Амурская область     50°14′06″N   127°53′15″E
темп.,
°C
ветер,
м/с
пор.,
м/с
влажн.,
%
обл.,
%
осадки,
мм/ч
давл.,
гПа
погр.,
м
21 апреля, ср
ср2100:00+4ююз48406 0.0 1015106
03:00+3ю48505 0.0 1014109
06:00+2ююв47526 0.0 1015101
09:00+8ю584064 0.0 1015261
12:00+17ююз79275 0.0 1013976
15:00+21ююз810230 0.0 10111345
18:00+19ю712290 0.0 1011664
21:00+14ю514390 0.0 1012248
22 апреля, чт
чт2200:00+12ююв513415 0.0 1012192
03:00+11ююв6134993 0.0 1011229
06:00+10ююв7155567 0.0 1011250
09:00+17ю8144495 0.0 1011606
12:00+20ююз81337100 0.0 1011964
15:00+25юз9132159 0.0 10122097
18:00+22юз71226100 0.0 1013725
21:00+14с6104998 0.0 1018403
23 апреля, пт
пт2300:00+9с61169100 0.0 1022529
03:00+7ссз61050100 0.0 1025673
06:00+4с81345100 0.2 1026678
09:00+4с61041100 0.6 1029790
12:00+6с5731100 0.1 10291078
15:00+10ссз7821100 0.1 10271804
18:00+8ссз7921100 0.0 10281810
21:00+5с51125100 0.0 1030474
24 апреля, сб
сб2400:00+3с613330 0.0 1031544
03:000сз39450 0.0 1031197
06:00−1сз38490 0.0 1031199
09:00+5ссз58310 0.0 10301118
12:00+9сз68212 0.0 10272136
15:00+12ссз81319100 0.0 10233551
18:00+12ссз71321100 0.0 10213317
21:00+7ссз714270 0.0 1023683
25 апреля, вс
вс2500:00+4с813415 0.0 10251147
03:00+2ссз612350 0.0 1026863
06:000ссз511430 0.0 1027635
09:00+4ссз57280 0.0 10271281
12:00+8ссз57192 0.0 10251684
15:00+11ссз46215 0.0 10222117
18:00+11сз25235 0.0 10202007
21:00+7ю3533100 0.0 102062